When you browse on this site, cookies collect data to enhance your experience and personalize the content and advertising you see.
Visit our Privacy Policy to learn more. By continuing to use the site, you agree to this use of cookies and data.
  • In Lithuania
  • List of Countries
  • For 7 days
  • Water Temperature
  • Satellite Maps
  • Weather Map
  • Weather Widgets
  • user-avatar
    Login

    Hourly Weather Veselivka

    Today, 19 March, Tuesday

    Time Temperature Precipitation Wind Pressure Humidity
    00:00 +3°C° 0 mm 5 mps 749 mmHg 69%
    01:00 +3°C° 0 mm 5 mps 749 mmHg 70%
    02:00 +3°C° 0 mm 5 mps 749 mmHg 72%
    03:00 +2°C° 0 mm 5 mps 749 mmHg 74%
    04:00 +2°C° 0 mm 5 mps 749 mmHg 76%
    05:00 +2°C° 0 mm 5 mps 749 mmHg 78%
    06:00 +2°C° 0 mm 5 mps 750 mmHg 75%
    07:00 +3°C° 0 mm 6 mps 750 mmHg 71%
    08:00 +3°C° 0 mm 6 mps 750 mmHg 67%
    09:00 +4°C° 0 mm 6 mps 750 mmHg 64%
    10:00 +7°C° 0 mm 6 mps 750 mmHg 60%
    11:00 +8°C° 0 mm 6 mps 750 mmHg 57%
    12:00 +9°C° 0 mm 6 mps 750 mmHg 55%
    13:00 +10°C° 0 mm 6 mps 750 mmHg 53%
    14:00 +11°C° 0 mm 6 mps 750 mmHg 51%
    15:00 +10°C° 0 mm 5 mps 750 mmHg 53%
    16:00 +11°C° 0 mm 4 mps 750 mmHg 56%
    17:00 +10°C° 0 mm 3 mps 750 mmHg 59%
    18:00 +9°C° 0 mm 2 mps 750 mmHg 64%
    19:00 +8°C° 0 mm 2 mps 751 mmHg 69%
    20:00 +8°C° 0 mm 1 mps 751 mmHg 74%
    21:00 +8°C° 0 mm 1 mps 751 mmHg 76%
    22:00 +8°C° 0 mm 1 mps 751 mmHg 79%
    23:00 +7°C° 0 mm 1 mps 751 mmHg 82%

    Tomorrow, 20 March, Wednesday

    Time Temperature Precipitation Wind Pressure Humidity
    00:00 +7°C° 0.3 mm 1 mps 751 mmHg 85%
    01:00 +7°C° 0.3 mm 1 mps 751 mmHg 89%
    02:00 +6°C° 0.3 mm 1 mps 751 mmHg 93%
    03:00 +5°C° 0.4 mm 2 mps 751 mmHg 93%
    04:00 +5°C° 0.4 mm 2 mps 751 mmHg 94%
    05:00 +4°C° 0.4 mm 2 mps 751 mmHg 95%
    06:00 +5°C° 0.1 mm 2 mps 752 mmHg 90%
    07:00 +5°C° 0.1 mm 2 mps 752 mmHg 85%
    08:00 +5°C° 0.1 mm 2 mps 752 mmHg 80%
    09:00 +5°C° 0 mm 3 mps 752 mmHg 72%
    10:00 +7°C° 0 mm 3 mps 753 mmHg 65%
    11:00 +7°C° 0 mm 4 mps 753 mmHg 57%
    12:00 +7°C° 0 mm 4 mps 753 mmHg 54%
    13:00 +7°C° 0 mm 4 mps 753 mmHg 50%
    14:00 +7°C° 0 mm 4 mps 753 mmHg 46%
    15:00 +7°C° 0 mm 4 mps 753 mmHg 48%
    16:00 +7°C° 0 mm 4 mps 753 mmHg 50%
    17:00 +6°C° 0 mm 4 mps 753 mmHg 52%
    18:00 +7°C° 0 mm 3 mps 753 mmHg 55%
    19:00 +5°C° 0 mm 3 mps 753 mmHg 59%
    20:00 +4°C° 0 mm 3 mps 754 mmHg 63%
    21:00 +3°C° 0 mm 3 mps 754 mmHg 67%
    22:00 +3°C° 0 mm 2 mps 753 mmHg 71%
    23:00 +2°C° 0 mm 2 mps 753 mmHg 75%

    Day after tomorrow, 21 March, Thursday

    Time Temperature Precipitation Wind Pressure Humidity
    00:00 +2°C° 0 mm 2 mps 753 mmHg 78%
    01:00 +1°C° 0 mm 2 mps 753 mmHg 81%
    02:00 +1°C° 0 mm 2 mps 753 mmHg 83%
    03:00 -1°C° 0 mm 3 mps 752 mmHg 83%
    04:00 -1°C° 0 mm 3 mps 751 mmHg 82%
    05:00 -1°C° 0 mm 3 mps 751 mmHg 82%
    06:00 -1°C° 0 mm 4 mps 750 mmHg 78%
    07:00 0°C° 0 mm 5 mps 750 mmHg 73%
    08:00 0°C° 0 mm 5 mps 750 mmHg 69%
    09:00 +1°C° 0.2 mm 5 mps 749 mmHg 72%
    10:00 +1°C° 0.2 mm 5 mps 749 mmHg 75%
    11:00 +1°C° 0.2 mm 5 mps 749 mmHg 78%
    12:00 +1°C° 0 mm 6 mps 749 mmHg 76%
    13:00 +2°C° 0 mm 6 mps 749 mmHg 73%
    14:00 +2°C° 0 mm 6 mps 749 mmHg 70%
    15:00 +2°C° 0 mm 6 mps 749 mmHg 70%
    16:00 +2°C° 0 mm 6 mps 749 mmHg 69%
    17:00 +2°C° 0 mm 5 mps 749 mmHg 68%
    18:00 +1°C° 0 mm 5 mps 749 mmHg 71%
    19:00 +1°C° 0 mm 4 mps 749 mmHg 74%
    20:00 0°C° 0 mm 4 mps 750 mmHg 76%
    21:00 0°C° 0 mm 4 mps 750 mmHg 77%
    22:00 -1°C° 0 mm 4 mps 750 mmHg 79%
    23:00 -1°C° 0 mm 4 mps 750 mmHg 80%

    22 March, Friday

    Time Temperature Precipitation Wind Pressure Humidity
    00:00 -1°C° 0 mm 3 mps 750 mmHg 81%
    01:00 -1°C° 0 mm 3 mps 750 mmHg 82%
    02:00 -1°C° 0 mm 3 mps 750 mmHg 83%
    03:00 -1°C° 0 mm 3 mps 750 mmHg 84%
    04:00 -1°C° 0 mm 3 mps 751 mmHg 85%
    05:00 -1°C° 0 mm 3 mps 751 mmHg 86%
    06:00 -1°C° 0 mm 3 mps 751 mmHg 81%
    07:00 0°C° 0 mm 3 mps 751 mmHg 76%
    08:00 +1°C° 0 mm 3 mps 751 mmHg 72%
    09:00 +3°C° 0 mm 3 mps 751 mmHg 67%
    10:00 +4°C° 0 mm 3 mps 751 mmHg 63%
    11:00 +5°C° 0 mm 3 mps 751 mmHg 58%
    12:00 +7°C° 0 mm 3 mps 751 mmHg 57%
    13:00 +8°C° 0 mm 3 mps 751 mmHg 55%
    14:00 +9°C° 0 mm 3 mps 751 mmHg 53%
    15:00 +8°C° 0 mm 3 mps 750 mmHg 58%
    16:00 +8°C° 0 mm 3 mps 750 mmHg 63%
    17:00 +8°C° 0 mm 3 mps 750 mmHg 67%
    18:00 +7°C° 0 mm 3 mps 750 mmHg 74%
    19:00 +5°C° 0 mm 3 mps 750 mmHg 81%
    20:00 +4°C° 0 mm 3 mps 750 mmHg 88%
    21:00 +4°C° 0 mm 3 mps 749 mmHg 90%
    22:00 +4°C° 0 mm 3 mps 749 mmHg 92%
    23:00 +5°C° 0 mm 3 mps 748 mmHg 93%

    23 March, Saturday

    Time Temperature Precipitation Wind Pressure Humidity
    00:00 +5°C° 0 mm 3 mps 748 mmHg 94%
    01:00 +5°C° 0 mm 4 mps 747 mmHg 94%
    02:00 +5°C° 0 mm 4 mps 747 mmHg 94%
    03:00 +5°C° 0 mm 5 mps 746 mmHg 94%
    04:00 +5°C° 0 mm 5 mps 746 mmHg 94%
    05:00 +4°C° 0 mm 6 mps 745 mmHg 93%
    06:00 +4°C° 0.7 mm 6 mps 745 mmHg 93%
    07:00 +5°C° 0.7 mm 6 mps 744 mmHg 92%
    08:00 +5°C° 0.7 mm 7 mps 744 mmHg 92%
    09:00 +6°C° 0.1 mm 7 mps 744 mmHg 80%
    10:00 +7°C° 0.1 mm 8 mps 744 mmHg 68%
    11:00 +9°C° 0.1 mm 8 mps 744 mmHg 56%
    12:00 +8°C° 0 mm 9 mps 744 mmHg 48%
    13:00 +8°C° 0 mm 9 mps 744 mmHg 40%
    14:00 +8°C° 0 mm 9 mps 744 mmHg 31%
    15:00 +7°C° 0 mm 9 mps 745 mmHg 33%
    16:00 +6°C° 0 mm 8 mps 745 mmHg 35%
    17:00 +6°C° 0 mm 7 mps 745 mmHg 37%
    18:00 +4°C° 0 mm 6 mps 746 mmHg 41%
    19:00 +3°C° 0 mm 6 mps 746 mmHg 45%
    20:00 +2°C° 0 mm 5 mps 747 mmHg 50%
    21:00 +1°C° 0 mm 5 mps 747 mmHg 52%
    22:00 +1°C° 0 mm 5 mps 747 mmHg 55%
    23:00 0°C° 0 mm 4 mps 748 mmHg 57%

    24 March, Sunday

    Time Temperature Precipitation Wind Pressure Humidity
    00:00 0°C° 0 mm 4 mps 748 mmHg 59%
    01:00 -1°C° 0 mm 4 mps 748 mmHg 62%
    02:00 0°C° 0 mm 3 mps 748 mmHg 64%
    03:00 -1°C° 0 mm 3 mps 748 mmHg 65%
    04:00 -1°C° 0 mm 3 mps 748 mmHg 67%
    05:00 -1°C° 0 mm 3 mps 748 mmHg 68%
    06:00 0°C° 0 mm 3 mps 748 mmHg 64%
    07:00 +1°C° 0 mm 3 mps 748 mmHg 60%
    08:00 +2°C° 0 mm 3 mps 748 mmHg 57%
    09:00 +3°C° 0 mm 3 mps 748 mmHg 52%
    10:00 +4°C° 0 mm 4 mps 747 mmHg 47%
    11:00 +6°C° 0 mm 5 mps 747 mmHg 42%
    12:00 +6°C° 0 mm 5 mps 746 mmHg 44%
    13:00 +6°C° 0 mm 5 mps 745 mmHg 46%
    14:00 +5°C° 0 mm 6 mps 744 mmHg 48%
    15:00 +5°C° 0.1 mm 6 mps 742 mmHg 55%
    16:00 +7°C° 0.1 mm 6 mps 741 mmHg 61%
    17:00 +7°C° 0.1 mm 6 mps 740 mmHg 68%
    18:00 +7°C° 0.1 mm 6 mps 739 mmHg 73%
    19:00 +8°C° 0.1 mm 6 mps 738 mmHg 79%
    20:00 +8°C° 0.1 mm 7 mps 737 mmHg 85%
    21:00 +8°C° 0.5 mm 7 mps 737 mmHg 84%
    22:00 +8°C° 0.5 mm 7 mps 736 mmHg 84%
    23:00 +8°C° 0.5 mm 7 mps 735 mmHg 84%
    Show more